Regional Weather Roundup
Issued by NWS

Home | Current Version | Previous Version | Graphics & Text | Print | Product List | Glossary On
Versions: 1 2 3 4 5 6 7 8 9 10 11 12 13 14 15 16 17 18 19 20 21 22 23 24 25 26 27 28 29 30 31 32 33 34 35 36 37 38 39 40 41 42 43 44 45 46 47 48 49 50
000
ASUS43 KIND 031759
RWRIN

WEATHER ROUNDUP FOR INDIANA
NATIONAL WEATHER SERVICE INDIANAPOLIS IN
200 PM EDT THU SEP 03 2015

NOTE: "FAIR" INDICATES FEW OR NO CLOUDS BELOW 12,000 FEET WITH NO
SIGNIFICANT WEATHER AND/OR OBSTRUCTIONS TO VISIBILITY.

* - STATION DOES NOT REPORT WEATHER SUCH AS PRECIPITATION OR FOG.

+ - STATION NOT QUALITY CONTROLLED BY THE NATIONAL WEATHER SERVICE.
    USE DATA WITH CAUTION...ESPECIALLY DEWPOINT AND RELATIVE
    HUMIDITY OBSERVATIONS.

INZ001>003-010>013-019-020-031900-
NORTHWEST INDIANA

CITY           SKY/WX    TMP DP  RH WIND       PRES   REMARKS
GARY /AIRPORT/ PTSUNNY   90  64  43 W13       29.95S
KNOX *+        MOSUNNY   88  64  45 SW13      29.95F
MONTICELLO +   MOSUNNY   88  69  52 SW13      29.97F
6HR MIN TEMP:  69; 6HR MAX TEMP:  89;

RENSSELAER +   MOSUNNY   88  68  51 SW10      29.96F

$$

LMZ046-743>745-031900-
SOUTHERN LAKE MICHIGAN

STATION/POSITION TIME  TEMP    WIND        PRES    WAVE
                       AIR SEA DIR/SP/G            HT
                 (UTC) (F)     (DEG/KT/KT) (MB)    (FT)
BURNS HARBOR     1700   84     220/  9/ 11 1014.6F
MICHIGAN CITY    1700   81     230/  8/  9   N/A
5NW MICH CITY    1700   78 74  230/  4/  4   N/A     1

$$

INZ004-005-014>016-021>024-031900-
NORTH CENTRAL INDIANA

CITY           SKY/WX    TMP DP  RH WIND       PRES   REMARKS
GOSHEN         PTSUNNY   87  68  52 W10       29.96F
6HR MIN TEMP:  70; 6HR MAX TEMP:  88;

SOUTH BEND     MOSUNNY   86  69  56 SW12      29.95F
6HR MIN TEMP:  70; 6HR MAX TEMP:  87;


$$

INZ006>009-017-018-025>027-031900-
NORTHEAST INDIANA

CITY           SKY/WX    TMP DP  RH WIND       PRES   REMARKS
ANGOLA *+      PTSUNNY   90  70  51 W13       29.97S HX  95
FORT WAYNE     MOSUNNY   88  68  51 W13G20    29.98F
6HR MIN TEMP:  70; 6HR MAX TEMP:  88;


$$

INZ028-029-035-036-043>045-051>053-031900-
WEST CENTRAL INDIANA

CITY           SKY/WX    TMP DP  RH WIND       PRES   REMARKS
CRAWFORDSVL +  MOSUNNY   86  62  43 SW5       29.99F
6HR MIN TEMP:  64; 6HR MAX TEMP:  86;

GREENCASTLE +  PTSUNNY   88  64  45 SW3       30.01F
LAFAYETTE      MOSUNNY   89  65  44 W9G16     29.97F
6HR MIN TEMP:  68; 6HR MAX TEMP:  90;

TERRE HAUTE    MOSUNNY   90  67  46 W8        30.00F
6HR MIN TEMP:  65; 6HR MAX TEMP:  90;


$$

INZ030>032-037>040-046>048-054>057-064-065-031900-
CENTRAL INDIANA

CITY           SKY/WX    TMP DP  RH WIND       PRES   REMARKS
FRANKFORT +    MOSUNNY   88  69  53 SW9       30.02S
INDIANAPOLIS   PTSUNNY   89  66  46 SW12      30.00F
6HR MIN TEMP:  70; 6HR MAX TEMP:  89;

-EAGLE CREEK   PTSUNNY   87  68  52 W10       30.00F
6HR MIN TEMP:  69; 6HR MAX TEMP:  89;

KOKOMO *+      MOSUNNY   88  66  48 W9        29.99F
6HR MIN TEMP:  68; 6HR MAX TEMP:  90;

MT COMFORT *+  MOSUNNY   90  52  27 W6        30.01F
SHELBYVILLE    MOSUNNY   90  65  43 VRB5      30.00F
6HR MIN TEMP:  66; 6HR MAX TEMP:  91;


$$

INZ033-034-041-042-049-050-058-059-031900-
EAST CENTRAL INDIANA

CITY           SKY/WX    TMP DP  RH WIND       PRES   REMARKS
MUNCIE         MOSUNNY   86  68  54 VRB5      30.00F
6HR MIN TEMP:  70; 6HR MAX TEMP:  86;


$$

INZ060-061-067>069-081>083-085>088-031900-
SOUTHWEST INDIANA

CITY           SKY/WX    TMP DP  RH WIND       PRES   REMARKS
EVANSVILLE     MOSUNNY   90  67  46 NW6       30.00F
6HR MIN TEMP:  70; 6HR MAX TEMP:  91;

HUNTINGBURG *+ PTSUNNY   91  68  46 W5        30.01F HX  95
6HR MIN TEMP:  66; 6HR MAX TEMP:  91;


$$

INZ062-063-066-070>080-084-089>092-031900-
SOUTH CENTRAL AND SOUTHEAST INDIANA

CITY           SKY/WX    TMP DP  RH WIND       PRES   REMARKS
BLOOMINGTON    MOSUNNY   88  67  49 NW5       30.02F
6HR MIN TEMP:  65; 6HR MAX TEMP:  88;

SEYMOUR +      MOSUNNY   93  64  38 CALM      30.01F HX  95

$$



USA.gov is the U.S. government's official web portal to all federal, state and local government web resources and services.